KBGE

Details ICAO KBGE (BGE)
Name DECATUR CO INDUSTRIAL AIRPARK
Region United States
Timezone America/New_York (UTC-4.0)
Plans Departing 2
Arriving 3
Stats Elevation 141 ft / 43 m (AMSL)
Location 30.971536° -84.637048°
Runways 2
Magnetic Variation 4.634° W
Sunrise 2018-05-20 10:41:45 UTC / 2018-05-20 06:41:45 Local
Sunset 2018-05-21 00:31:16 UTC / 2018-05-20 20:31:16 Local
Advertisement - Login to hide

Runways

ID Width Length Bearing (true) Bearing (mag) Surface Threshold Offset Overrun Length
09 150 ft / 46 m 5,492 ft / 1,674 m 89.71° 94.34° Asphalt 0 ft / 0 m 0 ft / 0 m
14 100 ft / 30 m 5,008 ft / 1,526 m 138.68° 143.31° Asphalt 0 ft / 0 m 0 ft / 0 m
27 150 ft / 46 m 5,492 ft / 1,674 m 269.72° 274.35° Asphalt 0 ft / 0 m 0 ft / 0 m
32 100 ft / 30 m 5,008 ft / 1,526 m 318.69° 323.32° Asphalt 0 ft / 0 m 0 ft / 0 m

Approach Navaids

Runway Type Ident Frequency Range Bearing (true) Bearing (mag) Slope Elevation
27 Localiser IBGE 111.35 MHz 18 nm / 33 km 269.71° 274.35° - 146 ft / 45 m (AMSL)

Map

Weather


0- 5 10 15 20 25 30 35+ Temperature / ° C

Clouds and Precipitation
Forecast for 2018-05-20 12:00 UTC. Updated an hour ago

Ground ~20,000 ft ~40,000 ft Winds

METAR

KBGE 201035Z AUTO 00000KT 10SM CLR 23/23 A3008 RMK AO2

TAF

Not found

Frequencies

Recorded 121.12 MHz AWOS 3
Approach 128.70 MHz TALLAHASSEE APP/DEP
Unicom 122.97 MHz CTAF/UNICOM
Warning: Do not use this data for real-world aviation or navigation. No guarantee of current accuracy is given.